N4QCZ Weather Reports


Display with metric or nautical units.
time (UTC)temp
F
wind
direction
speed
MPH
gust
MPH
rain 1hr
in
rain 24hr
in
rain mn
in
humidity
%
barometer
mb
20260505183045 83 0 1.0 3.0 0.00 0.01 0.01 50 1016.1
20260505181541 84 312 1.0 6.0 0.00 0.01 0.01 49 1016.3
20260505180045 84 179 1.0 5.0 0.00 0.01 0.01 51 1016.4
20260505174542 82 94 1.0 5.0 0.00 0.01 0.01 53 1016.4
20260505173042 83 57 0.0 6.0 0.00 0.01 0.01 52 1016.7
20260505171540 82 98 1.0 8.0 0.00 0.01 0.01 55 1016.7
20260505170040 81 139 1.0 5.0 0.00 0.01 0.01 56 1016.8
20260505164538 79 55 1.0 5.0 0.00 0.02 0.01 60 1017.0
20260505163037 79 0 1.0 7.0 0.00 0.02 0.01 60 1017.3
20260505161543 79 308 1.0 8.0 0.00 0.02 0.01 61 1017.3
20260505153045 78 127 1.0 6.0 0.00 0.02 0.01 67 1017.6
20260505151543 77 5 1.0 8.0 0.00 0.02 0.01 69 1017.8
20260505124543 65 0 0.0 2.0 0.00 0.02 0.01 81 1017.0
20260505123042 63 0 0.0 3.0 0.00 0.02 0.01 84 1017.0
20260505121547 61 0 0.0 2.0 0.00 0.02 0.01 87 1016.8
20260505120042 58 256 0.0 1.0 0.00 0.02 0.01 93 1016.7
20260505114540 56 0 0.0 1.0 0.00 0.02 0.01 92 1016.6
20260505113042 55 0 0.0 1.0 0.00 0.02 0.01 92 1016.6
20260505111543 55 0 0.0 0.0 0.00 0.02 0.01 91 1016.4
20260505101536 56 0 0.0 0.0 0.01 0.02 0.01 89 1016.1
20260505100036 56 0 0.0 0.0 0.01 0.02 0.01 89 1016.1
20260505094542 56 0 0.0 0.0 0.01 0.02 0.01 89 1016.0
20260505093050 57 0 0.0 0.0 0.01 0.02 0.01 88 1015.9
20260505091537 57 0 0.0 0.0 0.00 0.01 0.00 88 1015.9
20260505090039 57 0 0.0 0.0 0.00 0.01 0.00 87 1015.6
20260505084537 58 0 0.0 0.0 0.00 0.02 0.00 86 1015.4
20260505083100 59 0 0.0 0.0 0.00 0.02 0.00 85 1015.5
20260505081541 59 0 0.0 1.0 0.00 0.02 0.00 84 1015.4
20260505080044 60 0 0.0 1.0 0.00 0.02 0.00 83 1015.3
20260505074540 60 0 0.0 0.0 0.00 0.02 0.00 83 1015.5
20260505073040 61 0 0.0 1.0 0.00 0.02 0.00 82 1015.5
20260505071536 61 0 0.0 2.0 0.00 0.02 0.00 81 1015.6
20260505070048 61 0 0.0 1.0 0.00 0.02 0.00 80 1015.7
20260505064541 62 0 0.0 1.0 0.00 0.02 0.00 79 1015.9
20260505063042 62 0 0.0 2.0 0.00 0.02 0.00 79 1015.9
20260505061553 63 0 0.0 0.0 0.00 0.02 0.00 77 1016.2
20260505060036 64 0 0.0 1.0 0.00 0.02 0.00 76 1016.4
20260505054544 64 0 0.0 2.0 0.00 0.02 0.00 75 1016.4
20260505053035 65 62 0.0 4.0 0.00 0.02 0.00 74 1016.4
20260505051540 65 74 0.0 3.0 0.00 0.02 0.00 74 1016.5
20260505041539 65 71 1.0 7.0 0.00 0.02 0.00 72 1017.1
20260505040056 66 75 1.0 2.0 0.00 0.02 0.00 72 1017.0
20260505034542 66 0 0.0 3.0 0.00 0.02 0.02 70 1017.0
20260505033036 66 80 0.0 3.0 0.00 0.02 0.02 69 1016.8
20260505031545 67 71 0.0 2.0 0.00 0.02 0.02 68 1017.0
20260505030043 67 71 0.0 3.0 0.00 0.02 0.02 67 1016.7
20260505024538 66 69 1.0 3.0 0.00 0.03 0.02 67 1016.7
20260505023040 65 0 0.0 3.0 0.00 0.03 0.02 67 1016.8
20260505021537 62 54 0.0 3.0 0.00 0.03 0.02 70 1016.6
20260505020040 63 0 0.0 0.0 0.00 0.03 0.02 72 1016.0
20260505014544 64 0 0.0 0.0 0.00 0.03 0.02 66 1015.8
20260505013037 66 0 0.0 0.0 0.00 0.03 0.02 66 1015.8
20260505011539 67 0 0.0 0.0 0.00 0.03 0.02 62 1015.6
20260505010045 68 0 0.0 0.0 0.00 0.03 0.02 59 1015.6
20260505004535 69 0 0.0 0.0 0.00 0.03 0.02 56 1015.5
20260505003035 70 0 0.0 0.0 0.00 0.03 0.02 53 1015.7
20260505001540 72 0 0.0 1.0 0.00 0.03 0.02 53 1015.4
20260505000049 73 0 0.0 1.0 0.00 0.03 0.02 50 1015.4
20260504234537 74 0 0.0 1.0 0.00 0.03 0.02 49 1015.4
20260504233036 76 0 0.0 1.0 0.00 0.03 0.02 48 1015.3
20260504231534 77 0 0.0 2.0 0.00 0.03 0.02 44 1015.3
20260504230035 78 0 0.0 7.0 0.00 0.03 0.02 42 1015.3
20260504224540 78 65 1.0 5.0 0.00 0.04 0.02 40 1015.1
20260504223040 79 26 1.0 4.0 0.00 0.04 0.02 36 1014.9
20260504221540 79 71 2.0 6.0 0.00 0.04 0.02 38 1014.9
20260504220046 80 344 0.0 4.0 0.00 0.04 0.02 36 1015.1
20260504214542 80 192 1.0 5.0 0.00 0.04 0.02 38 1015.2
20260504213055 80 0 0.0 6.0 0.00 0.04 0.02 40 1015.0
20260504211542 81 238 0.0 5.0 0.00 0.04 0.02 37 1015.2
20260504210046 81 278 0.0 3.0 0.00 0.04 0.02 36 1015.6
20260504204545 81 341 1.0 3.0 0.00 0.05 0.02 36 1015.6
20260504203043 81 198 1.0 5.0 0.00 0.05 0.02 36 1015.5
20260504201542 81 286 2.0 4.0 0.00 0.05 0.02 35 1015.8
20260504200041 82 0 1.0 7.0 0.00 0.05 0.02 36 1016.2
20260504194537 82 236 0.0 5.0 0.00 0.05 0.02 39 1016.3
20260504193052 81 144 1.0 6.0 0.00 0.05 0.02 38 1016.4
20260504191541 80 0 0.0 6.0 0.00 0.05 0.02 41 1016.7
20260504190042 80 328 2.0 6.0 0.00 0.05 0.02 37 1017.0
20260504184543 80 160 0.0 4.0 0.00 0.06 0.02 43 1017.2